Tracking 18957 objects as of 23-Jan-2018
HD Live streaming from Space Station
objects crossing your sky now

FENGYUN 1C DEB

Track FENGYUN 1C DEB now!
10-day predictions


NORAD ID: 29935
Int'l Code: 1999-025JH
Perigee: 746.7 km
Apogee: 966.8 km
Inclination: 98.3 °
Period: 101.9 minutes
Semi major axis: 7227 km
RCS: 0.0569 m2 (small)
Launch date: May 10, 1999
Source: People's Republic of China (PRC)
Launch site: Taiyaun Space Center, China (TSC)

Note: This is SATELLITE DEBRIS
aabbcc
Your satellite tracking list
Your tracking list is empty




NASA's NSSDC Master Catalog

Two Line Element Set (TLE):
1 29935U 99025JH  18022.43037812 +.00000010 +00000-0 +24209-4 0  9996
2 29935 098.3412 199.2305 0152273 204.8528 185.0163 14.12857854568452
Source of the keplerian elements: AFSPC